[[{"header":{"parameterUnit":"m.s-1","parameterCategory":1,"la1":30.2991,"la2":30.254,"lo1":-89.0895,"lo2":-89.0444,"dy":0.0017,"dx":0.0017,"nx":28,"ny":28,"refTime":"2026-02-07T09:00:00:Z","depth":0,"parameterNumber":2,"parameterNumberName":"U-component_of_WINDS"},"data":[0,0,0,0,0,0,0,0,0,0,0,0,0,0,0,0,0,0,0,0,0,0,0,0,0,0,0,0,0,0,0,0,0,0,0,0,0,0,0,0,0,0,0,0,0,0,0,0,0,0,0,0,0,0,0,0,0,0,-1.9564,-1.9564,0,-1.9589,-1.9589,-1.9589,-1.9532,-1.953,-1.9528,-1.9526,-1.9556,-1.9558,-1.9561,0,0,0,0,0,0,0,0,0,0,0,0,0,-1.9471,-1.9473,-1.9564,-1.9564,-1.9565,-1.9589,-1.9589,-1.9589,-1.9532,-1.953,-1.9528,-1.9526,-1.9555,-1.9558,-1.9561,0,0,0,0,0,0,0,0,0,0,0,0,0,-1.9506,-1.9474,-1.9564,-1.9539,-1.9537,-1.9589,-1.9589,-1.9589,-1.9533,-1.953,-1.9527,-1.9525,-1.9554,-1.9558,-1.9561,-1.964,0,0,-1.9573,-1.9574,0,0,0,0,0,0,0,0,-1.9504,-1.9509,-1.9542,-1.9541,-1.9539,-1.9554,-1.9567,-1.9607,-1.9533,-1.9534,-1.9526,-1.9523,-1.9558,-1.9561,-1.9572,-1.9641,-1.9642,-1.9573,-1.9575,-1.9577,-1.9578,0,0,0,0,0,0,0,-1.9501,-1.9508,-1.9574,-1.9543,-1.9541,-1.9528,-1.953,-1.9574,-1.9562,-1.9534,-1.953,-1.9533,-1.9556,-1.9568,-1.9572,-1.9643,-1.9573,-1.9576,-1.9579,-1.958,-1.9779,-1.9782,0,0,0,0,0,0,-1.9502,-1.9506,-1.9573,-1.9575,-1.9514,-1.9532,-1.9534,-1.9552,-1.9561,-1.9559,-1.9536,-1.9531,-1.9563,-1.9568,-1.9573,-1.9667,-1.9577,-1.9581,-1.9583,-1.9776,-1.978,-1.9783,0,0,0,0,0,0,-1.95,-1.9508,-1.9572,-1.9539,-1.9546,-1.9536,-1.9557,-1.9554,-1.9566,-1.9562,-1.956,-1.955,-1.9561,-1.9568,-1.9624,-1.9667,-1.9582,-1.9586,-1.9772,-1.9777,-1.9781,-1.9854,0,0,0,0,0,0,-1.9497,-1.9508,-1.9537,-1.954,-1.9548,-1.9621,-1.956,-1.9557,-1.9572,-1.9566,-1.9575,-1.9574,-1.956,-1.9618,-1.9627,-1.967,-1.9589,-1.9769,-1.9775,-1.978,-1.9847,-1.986,-1.9871,0,0,0,0,0,-1.9494,-1.9557,-1.9538,-1.9547,-1.9584,-1.9624,-1.9629,-1.961,-1.9576,-1.9606,-1.9603,-1.9574,-1.966,-1.9625,-1.9634,-1.9679,-1.9766,-1.9773,-1.9779,-1.9842,-1.9858,-1.9871,0,0,0,0,0,0,-1.956,-1.9557,-1.9536,-1.9602,-1.9613,-1.9614,-1.9651,-1.9627,-1.9649,-1.9643,-1.9619,-1.9622,-1.9683,-1.9686,-1.9647,-1.9756,-1.9707,-1.9717,-1.9752,-1.9766,-1.9778,-1.9777,-1.9592,0,0,0,0,0,-1.9582,-1.9613,-1.9609,-1.9667,-1.9674,-1.9662,-1.9678,-1.9663,-1.9674,-1.968,-1.9681,-1.9695,-1.9725,-1.9746,-1.9773,-1.9847,-1.9849,-1.9883,-1.9894,-1.9904,-1.9913,-1.9954,-1.9969,-1.9805,-1.9805,-1.9805,0,0,-1.9628,-1.963,-1.9651,-1.968,-1.9688,-1.9722,-1.9666,-1.9705,-1.9731,-1.9686,-1.9739,-1.974,-1.9754,-1.982,-1.9849,-1.9824,-1.9958,-1.9913,-1.992,-1.9924,-1.9962,-1.9978,-1.9991,-1.981,-1.9809,-1.9808,0,0,-1.9729,-1.9733,-1.9782,-1.9791,-1.9802,-1.9793,-1.9805,-1.9809,-1.9809,-1.9861,-1.9828,-1.9859,-1.9911,-1.9923,-1.9935,-2.0041,-2.0016,-2.0051,-2.0113,-2.0153,-2.0166,-2.0178,-2.0217,-2.0231,-2.0059,-2.0059,-2.006,0,-1.9785,-1.9835,-1.9811,-1.9852,-1.9867,-1.9826,-1.9876,-1.9886,-1.9906,-1.9918,-1.989,-1.9955,-1.9961,-2.003,-2.0055,-2.0066,-2.0081,-2.0051,-2.0166,-2.0177,-2.0187,-2.0225,-2.024,-2.0064,-2.0063,-2.0063,-2.0062,0,-1.9904,-1.9939,-1.9978,-1.9997,-2.0016,-2.0061,-2.0046,-2.0068,-2.005,-2.0045,-2.01,-2.0106,-2.0134,-2.0149,-2.0133,-2.0215,-2.02,-2.0169,-2.0121,-2.0208,-2.0243,-2.0257,-2.007,-2.0068,-2.0067,-2.0066,0,0,-2.0049,-2.0054,-2.0069,-2.0078,-2.0087,-2.0114,-2.0158,-2.0185,-2.0205,-2.022,-2.0258,-2.0303,-2.0275,-2.0289,-2.0274,-2.0309,-2.0394,-2.0274,-2.0274,-2.0298,-2.0488,-2.0512,-2.0529,-2.0377,-2.0379,-2.0381,-2.0487,0,-2.0151,-2.0225,-2.0205,-2.0281,-2.0314,-2.0275,-2.0314,-2.0325,-2.0321,-2.0349,-2.0345,-2.0378,-2.0337,-2.0346,-2.0379,-2.0377,-2.0433,-2.0369,-2.0414,-2.0416,-2.0413,-2.0547,-2.0573,-2.0672,-2.05,-2.0503,-2.0504,0,-2.0279,-2.0298,-2.0377,-2.0381,-2.0394,-2.0429,-2.0453,-2.048,-2.0491,-2.0486,-2.0503,-2.048,-2.0526,-2.0475,-2.0538,-2.0495,-2.0512,-2.0514,-2.0518,-2.0523,-2.0467,-2.0557,-2.0703,-2.0719,-2.0525,-2.0524,-2.0522,0,-2.0379,-2.0425,-2.0477,-2.0486,-2.0492,-2.0518,-2.0522,-2.0531,-2.0548,-2.0569,-2.058,-2.0606,-2.0621,-2.0642,-2.0628,-2.0592,-2.0695,-2.0642,-2.0693,-2.0694,-2.0718,-2.0717,-2.0871,-2.0726,-2.0726,-2.0726,-2.0725,0,-2.0496,-2.0546,-2.0522,-2.0555,-2.0611,-2.0587,-2.0643,-2.0643,-2.0651,-2.0685,-2.0653,-2.0685,-2.0663,-2.0694,-2.0684,-2.0739,-2.0745,-2.0744,-2.0741,-2.0747,-2.0748,-2.076,-2.0753,-2.073,-2.0729,-2.0728,-2.0727,0,-2.0617,-2.0603,-2.0659,-2.066,-2.0661,-2.0702,-2.0703,-2.0735,-2.0728,-2.0771,-2.0779,-2.077,-2.0805,-2.0792,-2.0829,-2.0822,-2.0893,-2.088,-2.0889,-2.0886,-2.0938,-2.0934,-2.1107,-2.1129,-2.0968,-2.097,-2.0971,0,-2.0693,-2.073,-2.0735,-2.0754,-2.076,-2.0792,-2.0809,-2.0788,-2.0808,-2.0824,-2.0854,-2.0886,-2.091,-2.0968,-2.0965,-2.0994,-2.0982,-2.1041,-2.0987,-2.0993,-2.0985,-2.0984,-2.0988,-2.1052,-2.1054,-2.1056,-2.1057,0,-2.083,-2.0821,-2.0847,-2.0871,-2.0892,-2.091,-2.0925,-2.0943,-2.0923,-2.0947,-2.0982,-2.1001,-2.1038,-2.1071,-2.1097,-2.1102,-2.1077,-2.1073,-2.1087,-2.1096,-2.11,-2.11,-2.092,-2.107,-2.1069,-2.1068,-2.1067,-2.1067,-2.0932,-2.0964,-2.0972,-2.1002,-2.1011,-2.1026,-2.1056,-2.1053,-2.1081,-2.1109,-2.1095,-2.1135,-2.1147,-2.1179,-2.1188,-2.1221,-2.1198,-2.1218,-2.1223,-2.1228,-2.1236,-2.1093,-2.1225,-2.1225,-2.1224,-2.1224,-2.1224,0,-2.1069,-2.1072,-2.11,-2.1122,-2.1146,-2.1118,-2.1133,-2.1156,-2.1192,-2.1204,-2.1228,-2.1269,-2.13,-2.13,-2.1329,-2.1355,-2.1345,-2.1364,-2.1363,-2.1365,-2.1253,-2.1239,-2.1372,-2.1372,-2.1372,-2.1372,-2.1372,-2.1372,-2.1143,-2.1195,-2.1188,-2.1245,-2.1249,-2.1287,-2.1299,-2.1313,-2.1323,-2.1369,-2.1394,-2.1393,-2.1401,-2.1431,-2.1459,-2.1458,-2.1471,-2.1495,-2.1491,-2.1387,-2.1372,-2.1358,-2.1345,-2.1498,-2.1498,-2.16,-2.16,-2.1601]},{"header":{"parameterUnit":"m.s-1","parameterCategory":1,"la1":30.2991,"la2":30.254,"lo1":-89.0895,"lo2":-89.0444,"dy":0.0017,"dx":0.0017,"nx":28,"ny":28,"refTime":"2026-02-07T09:00:00:Z","depth":0,"parameterNumber":3,"parameterNumberName":"V-component_of_WINDS"},"data":[0,0,0,0,0,0,0,0,0,0,0,0,0,0,0,0,0,0,0,0,0,0,0,0,0,0,0,0,0,0,0,0,0,0,0,0,0,0,0,0,0,0,0,0,0,0,0,0,0,0,0,0,0,0,0,0,0,0,-2.6512,-2.6513,0,-2.6604,-2.6605,-2.6607,-2.6613,-2.6612,-2.6611,-2.661,-2.6703,-2.6707,-2.671,0,0,0,0,0,0,0,0,0,0,0,0,0,-2.6341,-2.6344,-2.6512,-2.6513,-2.6514,-2.6604,-2.6606,-2.6607,-2.6613,-2.6612,-2.661,-2.6609,-2.6702,-2.6706,-2.671,0,0,0,0,0,0,0,0,0,0,0,0,0,-2.6422,-2.6345,-2.6512,-2.6528,-2.6531,-2.6604,-2.6606,-2.6607,-2.6613,-2.6612,-2.661,-2.6609,-2.6701,-2.6706,-2.6711,-2.6774,0,0,-2.6727,-2.6729,0,0,0,0,0,0,0,0,-2.6417,-2.6428,-2.6525,-2.6527,-2.653,-2.6595,-2.6579,-2.6663,-2.6613,-2.6582,-2.661,-2.6608,-2.6669,-2.6676,-2.6697,-2.6778,-2.6782,-2.6727,-2.673,-2.6733,-2.6734,0,0,0,0,0,0,0,-2.6412,-2.6424,-2.6548,-2.6526,-2.6529,-2.6531,-2.6541,-2.6595,-2.6633,-2.6584,-2.6585,-2.6596,-2.667,-2.6692,-2.6699,-2.6784,-2.6727,-2.6732,-2.6735,-2.6737,-2.6923,-2.6925,0,0,0,0,0,0,-2.6403,-2.642,-2.6546,-2.6551,-2.6469,-2.6535,-2.6546,-2.6576,-2.6632,-2.6639,-2.6597,-2.6596,-2.6684,-2.6693,-2.6703,-2.6781,-2.6733,-2.6737,-2.674,-2.6921,-2.6923,-2.6925,0,0,0,0,0,0,-2.6399,-2.6414,-2.6542,-2.6486,-2.6502,-2.654,-2.6573,-2.6579,-2.6601,-2.6642,-2.6648,-2.6613,-2.6683,-2.6695,-2.6757,-2.6784,-2.674,-2.6744,-2.6919,-2.6922,-2.6924,-2.6938,0,0,0,0,0,0,-2.6394,-2.6413,-2.6437,-2.6486,-2.6505,-2.6594,-2.6575,-2.6582,-2.661,-2.6609,-2.6658,-2.6665,-2.6683,-2.6749,-2.6762,-2.6791,-2.6748,-2.6917,-2.692,-2.6923,-2.6935,-2.6941,-2.6946,0,0,0,0,0,-2.6388,-2.6437,-2.6438,-2.6453,-2.6536,-2.6596,-2.6607,-2.6626,-2.6612,-2.6637,-2.6664,-2.6664,-2.6779,-2.6755,-2.677,-2.6801,-2.6915,-2.6919,-2.6923,-2.6933,-2.694,-2.6946,0,0,0,0,0,0,-2.6389,-2.6443,-2.6446,-2.6512,-2.6549,-2.6597,-2.6629,-2.6633,-2.6675,-2.6672,-2.6694,-2.6705,-2.6766,-2.679,-2.6762,-2.6865,-2.6846,-2.6853,-2.6848,-2.6855,-2.686,-2.6853,-2.6753,0,0,0,0,0,-2.6397,-2.6441,-2.6486,-2.654,-2.6559,-2.6591,-2.6617,-2.6629,-2.6669,-2.6685,-2.6715,-2.6754,-2.6799,-2.6828,-2.6872,-2.6939,-2.695,-2.6967,-2.6972,-2.6977,-2.6983,-2.7021,-2.7029,-2.6939,-2.6939,-2.6939,0,0,-2.6414,-2.6449,-2.6475,-2.6541,-2.6572,-2.6617,-2.6604,-2.6652,-2.6686,-2.6692,-2.6752,-2.6776,-2.682,-2.6885,-2.6915,-2.6906,-2.701,-2.6982,-2.6985,-2.6989,-2.7026,-2.7035,-2.7042,-2.6942,-2.6941,-2.6941,0,0,-2.6468,-2.6498,-2.6547,-2.6578,-2.6625,-2.6646,-2.6658,-2.6705,-2.6722,-2.6783,-2.6788,-2.6829,-2.6906,-2.6938,-2.6964,-2.7031,-2.7033,-2.7045,-2.7072,-2.7109,-2.7116,-2.7123,-2.7148,-2.7156,-2.7051,-2.7051,-2.7051,0,-2.6482,-2.6551,-2.6571,-2.662,-2.6649,-2.6657,-2.6707,-2.6736,-2.6795,-2.6815,-2.6804,-2.6902,-2.6932,-2.7005,-2.7022,-2.7042,-2.7057,-2.7039,-2.7114,-2.712,-2.7127,-2.7151,-2.716,-2.7052,-2.7052,-2.7052,-2.7051,0,-2.6567,-2.6615,-2.6648,-2.6706,-2.6738,-2.6787,-2.6815,-2.6846,-2.6856,-2.6878,-2.6941,-2.6977,-2.7029,-2.7047,-2.7057,-2.7122,-2.7115,-2.7109,-2.709,-2.7136,-2.7159,-2.7168,-2.7053,-2.7053,-2.7053,-2.7052,0,0,-2.6623,-2.6692,-2.6704,-2.6731,-2.6783,-2.6821,-2.687,-2.6922,-2.6948,-2.6988,-2.7031,-2.7097,-2.7092,-2.7121,-2.7134,-2.7167,-2.7219,-2.7157,-2.7158,-2.7168,-2.7295,-2.73,-2.731,-2.7221,-2.7223,-2.7224,-2.7291,0,-2.6683,-2.6772,-2.6792,-2.6869,-2.6914,-2.6923,-2.6966,-2.7003,-2.7026,-2.7067,-2.7092,-2.7138,-2.7128,-2.7146,-2.7179,-2.7206,-2.7245,-2.7201,-2.7261,-2.7263,-2.725,-2.7322,-2.7327,-2.7388,-2.73,-2.7302,-2.7303,0,-2.6764,-2.6808,-2.6889,-2.6937,-2.6957,-2.6995,-2.7045,-2.7084,-2.7127,-2.7141,-2.7175,-2.7185,-2.7238,-2.7216,-2.7289,-2.7259,-2.7284,-2.7302,-2.7305,-2.7311,-2.7286,-2.7331,-2.7408,-2.7417,-2.7317,-2.7316,-2.7315,0,-2.6798,-2.6876,-2.6935,-2.6958,-2.7015,-2.7042,-2.7068,-2.7109,-2.7139,-2.7182,-2.7202,-2.7251,-2.7277,-2.7315,-2.7338,-2.732,-2.741,-2.7389,-2.7423,-2.7423,-2.7442,-2.744,-2.7525,-2.7458,-2.7457,-2.7457,-2.7457,0,-2.6863,-2.6912,-2.6951,-2.6988,-2.7044,-2.7067,-2.7122,-2.7147,-2.7184,-2.7226,-2.7236,-2.7275,-2.7303,-2.7346,-2.7365,-2.7423,-2.7435,-2.7448,-2.7452,-2.7447,-2.7446,-2.7465,-2.7461,-2.746,-2.7459,-2.7459,-2.7458,0,-2.691,-2.6938,-2.7003,-2.7052,-2.7066,-2.7105,-2.7148,-2.7184,-2.7207,-2.726,-2.7273,-2.731,-2.7361,-2.7388,-2.7451,-2.7464,-2.753,-2.7531,-2.7516,-2.7517,-2.755,-2.7547,-2.765,-2.7665,-2.7587,-2.7588,-2.7589,0,-2.6949,-2.6988,-2.7042,-2.7071,-2.7097,-2.7143,-2.7174,-2.7199,-2.7231,-2.7284,-2.7313,-2.7365,-2.7408,-2.749,-2.7522,-2.7571,-2.7575,-2.7607,-2.7582,-2.7576,-2.7576,-2.7574,-2.7578,-2.7612,-2.7612,-2.7613,-2.7614,0,-2.7017,-2.7029,-2.7074,-2.7124,-2.7161,-2.7201,-2.7241,-2.7264,-2.7296,-2.7331,-2.7384,-2.7418,-2.7484,-2.7535,-2.7587,-2.7613,-2.7619,-2.7622,-2.7632,-2.7627,-2.7617,-2.7624,-2.7528,-2.7619,-2.7618,-2.7618,-2.7618,-2.7617,-2.7062,-2.7097,-2.7141,-2.7191,-2.7223,-2.7261,-2.7298,-2.7326,-2.7371,-2.7426,-2.7439,-2.7495,-2.7538,-2.7609,-2.7636,-2.7681,-2.7674,-2.7689,-2.7693,-2.7697,-2.7699,-2.761,-2.769,-2.769,-2.769,-2.769,-2.769,0,-2.713,-2.716,-2.7205,-2.7261,-2.7301,-2.7303,-2.7348,-2.7381,-2.743,-2.747,-2.7513,-2.7574,-2.7625,-2.7662,-2.7714,-2.7742,-2.7746,-2.7755,-2.7753,-2.776,-2.7701,-2.7687,-2.7751,-2.7751,-2.7751,-2.7751,-2.7751,-2.7751,-2.7171,-2.7231,-2.7248,-2.7325,-2.7354,-2.741,-2.7435,-2.747,-2.7502,-2.7571,-2.7613,-2.7637,-2.7676,-2.7731,-2.7778,-2.7788,-2.7807,-2.7815,-2.7825,-2.777,-2.7763,-2.7757,-2.7744,-2.7819,-2.7819,-2.788,-2.7881,-2.7881]}]]